Station History


Daily Summary for March 10, 2012 Units:  English    Metric   Both
« Previous Day
Next Day »
Daily Weekly Monthly Yearly Custom
  High: Low: Average:
Temperature: 77.0 °F 38.8 °F 57 °F
Dew Point: 42.0 °F 32.8 °F 35.9 °F
Humidity: 85% 21% 50%
Wind Speed: 5.0mph 0.0mph 2.2mph
Wind Gust: 5.0mph - -
Wind- - WSW
Pressure: 30.10 in 29.89 in -
Precipitation: 0.00 in    
Historical Graphs
 
 
Tabular Data for March 10, 2012
Time Temperature Dew Point Pressure Wind Wind Speed Wind Gust Humidity Rainfall Rate (Hourly)
00:02 45.7 °F 36.5 °F 30.10 in Calm     70% 0.00 in
00:07 46.0 °F 36.4 °F 30.10 in Calm     69% 0.00 in
00:12 46.1 °F 36.1 °F 30.10 in Calm     68% 0.00 in
00:17 45.9 °F 35.9 °F 30.10 in Calm     68% 0.00 in
00:22 45.8 °F 35.8 °F 30.10 in East 1.1 mph 1.1 mph 68% 0.00 in
00:27 45.7 °F 35.7 °F 30.10 in Calm     68% 0.00 in
00:32 45.6 °F 35.6 °F 30.09 in Calm     68% 0.00 in
00:37 45.5 °F 35.9 °F 30.09 in Calm     69% 0.00 in
00:42 45.2 °F 36.0 °F 30.09 in Calm     70% 0.00 in
00:47 44.9 °F 35.3 °F 30.09 in Calm     69% 0.00 in
00:52 44.5 °F 35.3 °F 30.09 in Calm     70% 0.00 in
00:57 44.1 °F 35.3 °F 30.09 in Calm     71% 0.00 in
01:02 43.9 °F 35.1 °F 30.09 in Calm     71% 0.00 in
01:07 43.7 °F 35.3 °F 30.09 in Calm     72% 0.00 in
01:12 43.5 °F 35.1 °F 30.08 in Calm     72% 0.00 in
01:17 43.5 °F 35.4 °F 30.08 in Calm     73% 0.00 in
01:23 43.6 °F 35.2 °F 30.08 in Calm     72% 0.00 in
01:28 43.6 °F 35.5 °F 30.08 in Calm     73% 0.00 in
01:33 43.5 °F 35.8 °F 30.08 in Calm     74% 0.00 in
01:38 43.6 °F 36.2 °F 30.07 in Calm     75% 0.00 in
01:43 44.0 °F 36.2 °F 30.07 in Calm     74% 0.00 in
01:48 44.3 °F 36.2 °F 30.07 in Calm     73% 0.00 in
01:53 44.5 °F 36.0 °F 30.07 in Calm     72% 0.00 in
01:58 44.5 °F 36.4 °F 30.06 in Calm     73% 0.00 in
02:03 44.8 °F 36.3 °F 30.06 in Calm     72% 0.00 in
02:08 44.9 °F 36.4 °F 30.06 in Calm     72% 0.00 in
02:13 45.2 °F 36.4 °F 30.06 in Calm     71% 0.00 in
02:18 45.2 °F 36.4 °F 30.05 in Calm     71% 0.00 in
02:23 45.0 °F 35.8 °F 30.05 in Calm     70% 0.00 in
02:28 44.7 °F 35.9 °F 30.05 in Calm     71% 0.00 in
02:33 44.4 °F 35.6 °F 30.05 in Calm     71% 0.00 in
02:38 44.2 °F 35.7 °F 30.05 in Calm     72% 0.00 in
02:43 44.0 °F 35.6 °F 30.05 in Calm     72% 0.00 in
02:48 43.9 °F 35.8 °F 30.05 in Calm     73% 0.00 in
02:53 44.1 °F 35.6 °F 30.05 in Calm     72% 0.00 in
02:58 44.0 °F 35.6 °F 30.04 in Calm     72% 0.00 in
03:03 43.9 °F 35.5 °F 30.05 in Calm     72% 0.00 in
03:08 44.1 °F 35.6 °F 30.05 in Calm     72% 0.00 in
03:13 44.4 °F 35.6 °F 30.05 in Calm     71% 0.00 in
03:18 44.3 °F 35.1 °F 30.05 in Calm     70% 0.00 in
03:23 44.0 °F 35.2 °F 30.04 in Calm     71% 0.00 in
03:28 43.6 °F 35.2 °F 30.05 in Calm     72% 0.00 in
03:33 43.3 °F 35.2 °F 30.05 in Calm     73% 0.00 in
03:38 43.0 °F 34.9 °F 30.05 in Calm     73% 0.00 in
03:43 42.7 °F 35.0 °F 30.05 in Calm     74% 0.00 in
03:48 42.5 °F 35.1 °F 30.05 in Calm     75% 0.00 in
03:53 42.3 °F 34.9 °F 30.05 in Calm     75% 0.00 in
03:58 42.0 °F 34.6 °F 30.05 in Calm     75% 0.00 in
04:03 41.9 °F 34.9 °F 30.05 in Calm     76% 0.00 in
04:08 41.6 °F 34.6 °F 30.05 in Calm     76% 0.00 in
04:13 41.3 °F 34.6 °F 30.05 in Calm     77% 0.00 in
04:18 41.1 °F 34.8 °F 30.05 in Calm     78% 0.00 in
04:23 40.8 °F 34.5 °F 30.04 in Calm     78% 0.00 in
04:28 40.4 °F 34.1 °F 30.05 in Calm     78% 0.00 in
04:33 40.1 °F 34.1 °F 30.05 in Calm     79% 0.00 in
04:39 39.8 °F 34.1 °F 30.05 in Calm     80% 0.00 in
04:44 39.6 °F 33.9 °F 30.05 in Calm     80% 0.00 in
04:49 39.5 °F 33.8 °F 30.05 in Calm     80% 0.00 in
04:54 39.5 °F 34.5 °F 30.05 in Calm     82% 0.00 in
04:59 39.6 °F 34.6 °F 30.05 in Calm     82% 0.00 in
05:04 39.5 °F 34.5 °F 30.05 in Calm     82% 0.00 in
05:09 39.5 °F 34.8 °F 30.05 in Calm     83% 0.00 in
05:14 39.5 °F 34.8 °F 30.05 in Calm     83% 0.00 in
05:19 39.6 °F 34.6 °F 30.05 in Calm     82% 0.00 in
05:24 39.6 °F 34.6 °F 30.05 in Calm     82% 0.00 in
05:29 39.5 °F 34.5 °F 30.05 in Calm     82% 0.00 in
05:34 39.4 °F 34.4 °F 30.05 in Calm     82% 0.00 in
05:39 39.5 °F 34.5 °F 30.05 in Calm     82% 0.00 in
05:44 39.4 °F 34.4 °F 30.05 in Calm     82% 0.00 in
05:49 39.3 °F 34.3 °F 30.05 in Calm     82% 0.00 in
05:54 39.2 °F 34.5 °F 30.05 in Calm     83% 0.00 in
05:59 39.3 °F 34.3 °F 30.05 in Calm     82% 0.00 in
06:04 39.5 °F 34.5 °F 30.06 in Calm     82% 0.00 in
06:09 39.5 °F 34.2 °F 30.06 in Calm     81% 0.00 in
06:14 39.4 °F 34.1 °F 30.06 in Calm     81% 0.00 in
06:19 39.2 °F 33.9 °F 30.05 in Calm     81% 0.00 in
06:24 38.9 °F 34.2 °F 30.05 in Calm     83% 0.00 in
06:29 38.9 °F 34.2 °F 30.05 in Calm     83% 0.00 in
06:34 38.8 °F 34.1 °F 30.05 in Calm     83% 0.00 in
06:39 38.8 °F 34.1 °F 30.05 in Calm     83% 0.00 in
06:44 38.8 °F 34.1 °F 30.05 in Calm     83% 0.00 in
06:49 38.8 °F 34.4 °F 30.06 in Calm     84% 0.00 in
06:54 39.1 °F 35.0 °F 30.06 in Calm     85% 0.00 in
06:59 39.5 °F 35.1 °F 30.06 in Calm     84% 0.00 in
07:04 39.8 °F 35.4 °F 30.06 in Calm     84% 0.00 in
07:09 40.1 °F 36.0 °F 30.06 in Calm     85% 0.00 in
07:14 40.8 °F 36.3 °F 30.06 in Calm     84% 0.00 in
07:19 41.5 °F 36.7 °F 30.06 in Calm     83% 0.00 in
07:24 42.4 °F 37.0 °F 30.06 in Calm     81% 0.00 in
07:29 43.4 °F 37.6 °F 30.06 in Calm     80% 0.00 in
07:34 44.5 °F 38.1 °F 30.06 in Calm     78% 0.00 in
07:39 45.5 °F 38.0 °F 30.06 in Calm     75% 0.00 in
07:44 46.4 °F 38.2 °F 30.07 in Calm     73% 0.00 in
07:49 47.6 °F 37.6 °F 30.07 in Calm     68% 0.00 in
07:54 48.7 °F 37.5 °F 30.07 in Calm     65% 0.00 in
07:59 50.0 °F 36.2 °F 30.07 in Calm     59% 0.00 in
08:04 51.2 °F 36.5 °F 30.07 in Calm     57% 0.00 in
08:09 52.0 °F 35.9 °F 30.07 in SW 1.1 mph 1.1 mph 54% 0.00 in
08:14 53.0 °F 36.3 °F 30.07 in Calm     53% 0.00 in
08:19 53.6 °F 36.4 °F 30.07 in SW 1.1 mph   52% 0.00 in
08:24 54.1 °F 36.9 °F 30.06 in Calm     52% 0.00 in
08:29 54.9 °F 35.0 °F 30.07 in SW 1.1 mph 1.1 mph 47% 0.00 in
08:34 55.5 °F 35.6 °F 30.06 in SW 1.1 mph 1.1 mph 47% 0.00 in
08:39 56.1 °F 35.0 °F 30.06 in Calm     45% 0.00 in
08:44 56.6 °F 34.9 °F 30.06 in West 2.0 mph 2.0 mph 44% 0.00 in
08:49 57.2 °F 35.5 °F 30.06 in SW 1.1 mph 1.1 mph 44% 0.00 in
08:54 57.7 °F 35.9 °F 30.06 in Calm     44% 0.00 in
08:59 58.3 °F 35.9 °F 30.06 in South 1.1 mph   43% 0.00 in
09:04 58.9 °F 36.4 °F 30.05 in SSE 1.1 mph 1.1 mph 43% 0.00 in
09:09 59.4 °F 35.1 °F 30.05 in SSW 2.3 mph 2.3 mph 40% 0.00 in
09:14 59.9 °F 36.1 °F 30.06 in SW 1.1 mph   41% 0.00 in
09:19 60.5 °F 35.4 °F 30.05 in Calm     39% 0.00 in
09:24 60.9 °F 35.1 °F 30.04 in SE 1.1 mph 1.1 mph 38% 0.00 in
09:29 61.4 °F 34.9 °F 30.04 in SW 2.3 mph 2.3 mph 37% 0.00 in
09:34 62.2 °F 36.3 °F 30.04 in SSE 1.1 mph 1.1 mph 38% 0.00 in
09:39 62.7 °F 35.3 °F 30.04 in SSE 1.1 mph 1.1 mph 36% 0.00 in
09:45 63.2 °F 35.1 °F 30.04 in SW 1.1 mph 1.1 mph 35% 0.00 in
09:50 63.5 °F 34.6 °F 30.04 in South 1.1 mph   34% 0.00 in
09:55 63.9 °F 35.7 °F 30.04 in SSW 1.1 mph 1.1 mph 35% 0.00 in
10:00 64.5 °F 34.7 °F 30.04 in SSE 2.3 mph 2.3 mph 33% 0.00 in
10:05 64.8 °F 34.2 °F 30.03 in SSW 1.1 mph 1.1 mph 32% 0.00 in
10:10 65.1 °F 34.5 °F 30.03 in SW 2.3 mph 2.3 mph 32% 0.00 in
10:15 65.6 °F 36.5 °F 30.03 in Calm     34% 0.00 in
10:20 66.2 °F 34.7 °F 30.03 in South 2.3 mph 2.3 mph 31% 0.00 in
10:25 66.9 °F 37.6 °F 30.03 in SSE 1.1 mph 1.1 mph 34% 0.00 in
10:30 67.5 °F 35.8 °F 30.03 in South 1.1 mph 1.1 mph 31% 0.00 in
10:35 68.1 °F 36.3 °F 30.02 in West 1.1 mph 1.1 mph 31% 0.00 in
10:40 68.4 °F 36.6 °F 30.02 in ESE 2.3 mph 2.3 mph 31% 0.00 in
10:45 68.7 °F 36.0 °F 30.02 in SSW 3.5 mph 3.5 mph 30% 0.00 in
10:50 69.1 °F 35.5 °F 30.03 in SW 1.1 mph 1.1 mph 29% 0.00 in
10:55 69.4 °F 37.4 °F 30.02 in SW 1.1 mph 1.1 mph 31% 0.00 in
11:00 69.8 °F 36.9 °F 30.02 in SW 1.1 mph 1.1 mph 30% 0.00 in
11:05 70.1 °F 36.3 °F 30.02 in SSW 2.3 mph 2.3 mph 29% 0.00 in
11:10 70.4 °F 36.6 °F 30.02 in SW 1.1 mph 1.1 mph 29% 0.00 in
11:15 70.6 °F 35.9 °F 30.02 in WSW 3.0 mph 3.0 mph 28% 0.00 in
11:20 70.8 °F 37.0 °F 30.02 in NW 1.1 mph 1.1 mph 29% 0.00 in
11:25 71.2 °F 39.0 °F 30.02 in SSE 1.1 mph 1.1 mph 31% 0.00 in
11:26 71.4 °F 38.3 °F 30.02 in SSE 3.5 mph 3.5 mph 30% 0.00 in
11:31 71.8 °F 38.7 °F 30.02 in West 2.0 mph 2.0 mph 30% 0.00 in
11:37 72.4 °F 38.3 °F 30.01 in South 2.3 mph 2.3 mph 29% 0.00 in
11:42 72.8 °F 37.8 °F 30.01 in South 2.3 mph 2.3 mph 28% 0.00 in
11:47 72.6 °F 41.0 °F 30.01 in West 3.5 mph 3.5 mph 32% 0.00 in
11:52 72.8 °F 42.0 °F 30.01 in NNW 4.6 mph 4.6 mph 33% 0.00 in
11:57 73.0 °F 39.7 °F 30.01 in NNE 3.5 mph 3.5 mph 30% 0.00 in
12:02 72.4 °F 39.2 °F 30.00 in West 3.5 mph 3.5 mph 30% 0.00 in
12:07 72.9 °F 37.9 °F 30.00 in WNW 3.5 mph 3.5 mph 28% 0.00 in
12:12 73.0 °F 37.0 °F 30.00 in SSW 1.1 mph 1.1 mph 27% 0.00 in
12:17 73.5 °F 40.2 °F 30.00 in SSE 2.3 mph 2.3 mph 30% 0.00 in
12:22 73.2 °F 39.0 °F 29.99 in North 1.1 mph 1.1 mph 29% 0.00 in
12:27 73.7 °F 36.7 °F 29.99 in West 2.3 mph 2.3 mph 26% 0.00 in
12:32 73.3 °F 39.1 °F 29.98 in SE 2.3 mph 2.3 mph 29% 0.00 in
12:37 73.2 °F 40.7 °F 29.98 in WSW 2.3 mph   31% 0.00 in
12:42 73.4 °F 40.1 °F 29.98 in WSW 1.1 mph 1.1 mph 30% 0.00 in
12:47 74.1 °F 39.8 °F 29.98 in NW 4.0 mph 4.0 mph 29% 0.00 in
12:52 74.5 °F 39.2 °F 29.98 in NE 1.1 mph   28% 0.00 in
12:57 74.9 °F 37.7 °F 29.97 in West 3.5 mph 3.5 mph 26% 0.00 in
13:02 74.6 °F 38.4 °F 29.97 in NNW 3.5 mph 3.5 mph 27% 0.00 in
13:07 74.7 °F 35.5 °F 29.96 in West 3.5 mph 3.5 mph 24% 0.00 in
13:12 74.3 °F 36.2 °F 29.96 in WNW 3.5 mph 3.5 mph 25% 0.00 in
13:17 74.8 °F 37.6 °F 29.96 in NNE 3.0 mph 3.0 mph 26% 0.00 in
13:22 75.3 °F 37.0 °F 29.95 in North 2.0 mph 2.0 mph 25% 0.00 in
13:27 75.6 °F 35.2 °F 29.95 in West 2.3 mph 2.3 mph 23% 0.00 in
13:32 75.7 °F 35.3 °F 29.95 in NNW 2.3 mph 2.3 mph 23% 0.00 in
13:37 75.7 °F 35.3 °F 29.95 in North 3.5 mph 3.5 mph 23% 0.00 in
13:42 75.9 °F 36.5 °F 29.95 in West 3.0 mph 3.0 mph 24% 0.00 in
13:48 76.2 °F 35.7 °F 29.94 in SW 5.0 mph 5.0 mph 23% 0.00 in
13:53 75.9 °F 37.5 °F 29.94 in NNW 2.3 mph 2.3 mph 25% 0.00 in
13:58 76.4 °F 34.7 °F 29.94 in WNW 3.5 mph 3.5 mph 22% 0.00 in
14:03 76.9 °F 35.1 °F 29.93 in SE 2.3 mph 2.3 mph 22% 0.00 in
14:08 77.0 °F 35.2 °F 29.93 in WNW 2.3 mph 2.3 mph 22% 0.00 in
14:13 76.8 °F 35.1 °F 29.93 in West 3.5 mph 3.5 mph 22% 0.00 in
14:18 76.8 °F 33.9 °F 29.93 in NW 4.6 mph 4.6 mph 21% 0.00 in
14:23 76.4 °F 33.6 °F 29.92 in NW 1.1 mph 1.1 mph 21% 0.00 in
14:28 76.1 °F 33.3 °F 29.92 in NNW 3.5 mph 3.5 mph 21% 0.00 in
14:33 75.0 °F 33.6 °F 29.92 in East 3.5 mph   22% 0.00 in
14:38 74.9 °F 34.6 °F 29.92 in SW 1.1 mph 1.1 mph 23% 0.00 in
14:43 75.1 °F 35.8 °F 29.92 in NW 3.0 mph 3.0 mph 24% 0.00 in
14:48 74.8 °F 35.6 °F 29.92 in NW 2.0 mph 2.0 mph 24% 0.00 in
14:53 74.6 °F 35.4 °F 29.91 in NNW 1.1 mph 1.1 mph 24% 0.00 in
14:58 74.6 °F 37.4 °F 29.91 in NNE 2.0 mph 2.0 mph 26% 0.00 in
15:03 74.7 °F 35.5 °F 29.91 in West 1.1 mph 1.1 mph 24% 0.00 in
15:08 74.8 °F 36.6 °F 29.91 in West 2.3 mph 2.3 mph 25% 0.00 in
15:13 75.9 °F 36.5 °F 29.91 in NNW 2.3 mph 2.3 mph 24% 0.00 in
15:18 76.3 °F 35.8 °F 29.91 in North 3.5 mph 3.5 mph 23% 0.00 in
15:23 75.8 °F 35.3 °F 29.91 in SSW 3.5 mph 3.5 mph 23% 0.00 in
15:28 76.4 °F 34.7 °F 29.90 in NNW 1.1 mph 1.1 mph 22% 0.00 in
15:33 76.2 °F 33.4 °F 29.90 in West 1.1 mph 1.1 mph 21% 0.00 in
15:38 75.6 °F 34.1 °F 29.90 in SW 3.5 mph 3.5 mph 22% 0.00 in
15:43 75.1 °F 33.6 °F 29.90 in West 3.5 mph 3.5 mph 22% 0.00 in
15:48 75.5 °F 32.8 °F 29.90 in NNE 1.1 mph 1.2 mph 21% 0.00 in
15:53 75.6 °F 32.9 °F 29.90 in WSW 1.1 mph 1.4 mph 21% 0.00 in
15:58 75.7 °F 35.3 °F 29.89 in West 3.5 mph 3.5 mph 23% 0.00 in
16:03 76.3 °F 34.6 °F 29.90 in NW 3.5 mph 3.5 mph 22% 0.00 in
16:08 76.1 °F 35.6 °F 29.90 in NNW 3.5 mph 3.5 mph 23% 0.00 in
16:13 74.9 °F 34.6 °F 29.90 in NNW 2.0 mph 2.0 mph 23% 0.00 in
16:18 74.1 °F 35.0 °F 29.90 in WSW 1.1 mph 1.1 mph 24% 0.00 in
16:23 73.7 °F 35.7 °F 29.90 in SW 2.3 mph 2.3 mph 25% 0.00 in
16:28 73.4 °F 35.4 °F 29.89 in WNW 2.0 mph 2.0 mph 25% 0.00 in
16:34 73.3 °F 35.3 °F 29.89 in North 1.1 mph 1.1 mph 25% 0.00 in
16:39 73.6 °F 35.6 °F 29.89 in WNW 1.1 mph 1.1 mph 25% 0.00 in
16:44 73.8 °F 35.8 °F 29.89 in West 2.3 mph 2.3 mph 25% 0.00 in
16:49 74.1 °F 36.0 °F 29.89 in NW 2.3 mph 2.3 mph 25% 0.00 in
16:54 73.8 °F 36.8 °F 29.89 in North 3.5 mph 3.5 mph 26% 0.00 in
16:59 73.3 °F 36.3 °F 29.89 in WNW 3.5 mph 3.5 mph 26% 0.00 in
17:04 72.7 °F 36.8 °F 29.89 in NW 3.5 mph 3.5 mph 27% 0.00 in
17:09 72.2 °F 35.4 °F 29.89 in North 3.5 mph 3.5 mph 26% 0.00 in
17:14 71.8 °F 36.0 °F 29.89 in West 1.1 mph 1.1 mph 27% 0.00 in
17:19 71.4 °F 36.6 °F 29.89 in NNW 1.1 mph 1.1 mph 28% 0.00 in
17:24 71.2 °F 37.3 °F 29.89 in NNW 1.0 mph   29% 0.00 in
17:29 70.8 °F 37.0 °F 29.89 in North 1.1 mph 1.1 mph 29% 0.00 in
17:34 70.5 °F 35.8 °F 29.89 in NNW 2.3 mph 2.3 mph 28% 0.00 in
17:39 70.1 °F 36.3 °F 29.89 in NNW 1.1 mph 1.1 mph 29% 0.00 in
17:44 69.7 °F 36.0 °F 29.89 in Calm     29% 0.00 in
17:49 69.2 °F 35.6 °F 29.89 in Calm     29% 0.00 in
17:54 68.7 °F 35.1 °F 29.89 in NNW 1.1 mph 1.1 mph 29% 0.00 in
17:59 68.1 °F 34.6 °F 29.89 in Calm     29% 0.00 in
18:04 67.5 °F 35.0 °F 29.90 in WNW 1.1 mph 1.1 mph 30% 0.00 in
18:09 67.1 °F 34.6 °F 29.90 in Calm     30% 0.00 in
18:14 66.6 °F 34.2 °F 29.90 in Calm     30% 0.00 in
18:19 66.0 °F 34.5 °F 29.90 in Calm     31% 0.00 in
18:24 65.4 °F 34.8 °F 29.90 in Calm     32% 0.00 in
18:29 64.9 °F 34.3 °F 29.90 in Calm     32% 0.00 in
18:34 64.4 °F 34.6 °F 29.90 in Calm     33% 0.00 in
18:39 63.7 °F 34.8 °F 29.90 in Calm     34% 0.00 in
18:44 63.0 °F 34.2 °F 29.90 in Calm     34% 0.00 in
18:49 62.6 °F 33.8 °F 29.90 in Calm     34% 0.00 in
18:54 62.1 °F 34.1 °F 29.90 in Calm     35% 0.00 in
18:59 61.8 °F 33.8 °F 29.90 in Calm     35% 0.00 in
19:04 61.4 °F 34.9 °F 29.90 in Calm     37% 0.00 in
19:09 60.8 °F 35.0 °F 29.90 in Calm     38% 0.00 in
19:14 60.0 °F 35.0 °F 29.90 in Calm     39% 0.00 in
19:19 59.2 °F 34.2 °F 29.90 in Calm     39% 0.00 in
19:24 58.5 °F 35.5 °F 29.90 in Calm     42% 0.00 in
19:29 58.0 °F 35.6 °F 29.90 in Calm     43% 0.00 in
19:34 57.4 °F 35.6 °F 29.90 in Calm     44% 0.00 in
19:39 57.0 °F 35.3 °F 29.90 in Calm     44% 0.00 in
19:44 56.7 °F 34.4 °F 29.90 in Calm     43% 0.00 in
19:49 56.7 °F 35.6 °F 29.90 in Calm     45% 0.00 in
19:54 56.4 °F 35.3 °F 29.90 in Calm     45% 0.00 in
19:59 55.9 °F 35.4 °F 29.90 in Calm     46% 0.00 in
20:04 55.3 °F 35.4 °F 29.90 in Calm     47% 0.00 in
20:09 54.8 °F 35.5 °F 29.90 in Calm     48% 0.00 in
20:14 54.4 °F 36.1 °F 29.90 in Calm     50% 0.00 in
20:19 54.0 °F 35.8 °F 29.90 in Calm     50% 0.00 in
20:24 53.6 °F 36.4 °F 29.91 in Calm     52% 0.00 in
20:29 53.5 °F 36.3 °F 29.91 in Calm     52% 0.00 in
20:34 53.4 °F 36.2 °F 29.91 in Calm     52% 0.00 in
20:39 53.4 °F 36.2 °F 29.91 in Calm     52% 0.00 in
20:44 53.2 °F 36.5 °F 29.91 in Calm     53% 0.00 in
20:49 53.2 °F 36.5 °F 29.91 in Calm     53% 0.00 in
20:54 53.2 °F 37.4 °F 29.91 in Calm     55% 0.00 in
20:59 52.9 °F 36.7 °F 29.91 in Calm     54% 0.00 in
21:00 52.8 °F 36.6 °F 29.91 in Calm     54% 0.00 in
21:01 52.8 °F 37.1 °F 29.91 in Calm     55% 0.00 in
21:02 52.6 °F 36.4 °F 29.91 in Calm     54% 0.00 in
21:07 52.4 °F 37.2 °F 29.92 in Calm     56% 0.00 in
21:12 52.4 °F 36.7 °F 29.92 in Calm     55% 0.00 in
21:17 52.4 °F 36.7 °F 29.92 in Calm     55% 0.00 in
21:22 52.6 °F 36.9 °F 29.93 in West 1.1 mph   55% 0.00 in
21:27 52.8 °F 36.6 °F 29.93 in Calm     54% 0.00 in
21:32 52.7 °F 36.5 °F 29.93 in Calm     54% 0.00 in
21:37 52.4 °F 36.7 °F 29.93 in Calm     55% 0.00 in
21:42 52.0 °F 36.8 °F 29.92 in Calm     56% 0.00 in
21:47 51.5 °F 36.8 °F 29.93 in Calm     57% 0.00 in
21:52 51.2 °F 36.9 °F 29.92 in Calm     58% 0.00 in
21:57 51.0 °F 36.7 °F 29.93 in Calm     58% 0.00 in
22:02 50.6 °F 36.4 °F 29.92 in Calm     58% 0.00 in
22:07 50.3 °F 36.5 °F 29.93 in Calm     59% 0.00 in
22:12 50.0 °F 36.7 °F 29.93 in Calm     60% 0.00 in
22:17 50.0 °F 36.7 °F 29.93 in Calm     60% 0.00 in
22:22 49.9 °F 36.6 °F 29.93 in Calm     60% 0.00 in
22:27 49.9 °F 36.6 °F 29.93 in Calm     60% 0.00 in
22:32 49.9 °F 36.6 °F 29.93 in Calm     60% 0.00 in
22:38 49.8 °F 36.5 °F 29.93 in Calm     60% 0.00 in
22:43 49.7 °F 36.4 °F 29.93 in Calm     60% 0.00 in
22:48 49.6 °F 36.3 °F 29.93 in Calm     60% 0.00 in
22:53 49.5 °F 36.6 °F 29.93 in Calm     61% 0.00 in
22:58 49.5 °F 36.6 °F 29.93 in Calm     61% 0.00 in
23:03 49.2 °F 36.3 °F 29.93 in Calm     61% 0.00 in
23:08 48.9 °F 36.4 °F 29.93 in Calm     62% 0.00 in
23:13 48.7 °F 36.7 °F 29.93 in Calm     63% 0.00 in
23:18 48.5 °F 36.5 °F 29.93 in Calm     63% 0.00 in
23:23 48.2 °F 37.0 °F 29.93 in Calm     65% 0.00 in
23:28 48.1 °F 36.9 °F 29.93 in Calm     65% 0.00 in
23:33 48.0 °F 36.8 °F 29.93 in Calm     65% 0.00 in
23:38 48.0 °F 36.8 °F 29.93 in Calm     65% 0.00 in
23:43 47.9 °F 36.7 °F 29.93 in Calm     65% 0.00 in
23:48 47.5 °F 36.7 °F 29.93 in Calm     66% 0.00 in
23:53 47.5 °F 37.1 °F 29.93 in Calm     67% 0.00 in
23:58 47.2 °F 36.4 °F 29.93 in Calm     66% 0.00 in
Compliments of Weather Underground